Weather History for Volk, WI

Change the Weather History Date:

Wednesday, October 6, 2010

  Actual Average Record
Temperature  
Mean Temperature 55 °F -  
Max Temperature 74 °F 60 °F 85 °F (2007)
Min Temperature 35 °F 42 °F 27 °F (2014)
Degree Days  
Heating Degree Days 10    
Growing Degree Days 5 (Base 50)    
Moisture  
Dew Point 45 °F    
Average Humidity 75    
Maximum Humidity 100    
Minimum Humidity 41    
Precipitation  
Precipitation 0.00 in - - ()
Sea Level Pressure  
Sea Level Pressure 30.09 in    
Wind  
Wind Speed 5 mph (WNW)    
Max Wind Speed 13 mph    
Max Gust Speed 18 mph    
Visibility 10 miles    
Events Fog    
Averages and records for this station are not official NWS values.
T = Trace of Precipitation, MM = Missing Value Source: NWS Daily Summary

Daily Weather History Graph

Daily Weather History Graph

Search for Another Location

Airport:

Trip Planner

Search our weather history database for the weather conditions in past years. The results will help you decide how hot, cold, wet, or windy it might be!

Date:

Astronomy

Oct. 06, 2010 Rise Set
Actual Time 7:04 AM CDT 6:32 PM CDT
Civil Twilight 6:35 AM CDT 7:01 PM CDT
Nautical Twilight 6:02 AM CDT 7:34 PM CDT
Astronomical Twilight 5:28 AM CDT 8:08 PM CDT
Moon 5:40 AM CDT (10/6) 5:35 PM CDT (10/6)
Length of Visible Light 12h 25m
Length of Day
11h 28m
Waning Crescent, 2% of the Moon is Illuminated
Oct 6
Waning Crescent
Oct 7
New
Oct 14
First Quarter
Oct 22
Full
Oct 30
Last Quarter

Hourly Weather History & Observations

Time (CDT) Temp. Windchill Dew Point Humidity Pressure Visibility Wind Dir Wind Speed Gust Speed Precip Events Conditions
12:55 AM 37.4 °F 32.8 °F 37.0 °F 99% 30.23 in 9.0 mi SE 5.8 mph - N/A   Clear
1:55 AM 37.6 °F - 37.4 °F 99% 30.22 in 10.0 mi Calm Calm - N/A   Clear
2:55 AM 36.5 °F - 36.1 °F 99% 30.21 in 10.0 mi Calm Calm - N/A   Clear
3:55 AM 35.8 °F 31.9 °F 35.6 °F 99% 30.19 in 8.0 mi East 4.6 mph - N/A   Clear
4:55 AM 36.3 °F - 36.0 °F 99% 30.17 in 10.0 mi Calm Calm - N/A   Clear
5:55 AM 36.5 °F 33.9 °F 36.3 °F 99% 30.16 in 10.0 mi ESE 3.5 mph - N/A   Clear
6:55 AM 41.0 °F 37.1 °F 41.0 °F 100% 30.14 in 10.0 mi SE 5.8 mph - N/A Fog Shallow Fog
7:55 AM 44.6 °F 42.2 °F 44.6 °F 100% 30.12 in 10.0 mi SSE 4.6 mph - N/A   Clear
8:55 AM 57.2 °F - 50.0 °F 77% 30.11 in 10.0 mi Calm Calm - N/A   Partly Cloudy
9:55 AM 64.4 °F - 50.0 °F 59% 30.09 in 10.0 mi WNW 9.2 mph - N/A   Partly Cloudy
10:55 AM 66.2 °F - 48.2 °F 52% 30.08 in 10.0 mi WNW 9.2 mph - N/A   Partly Cloudy
11:55 AM 68.0 °F - 50.0 °F 52% 30.07 in 10.0 mi WNW 11.5 mph - N/A   Partly Cloudy
12:55 PM 69.8 °F - 50.0 °F 49% 30.06 in 10.0 mi NW 6.9 mph - N/A   Clear
1:55 PM 71.6 °F - 53.6 °F 53% 30.04 in 10.0 mi WNW 6.9 mph - N/A   Clear
2:55 PM 73.4 °F - 53.6 °F 50% 30.01 in 10.0 mi WNW 8.1 mph - N/A   Clear
3:55 PM 75.2 °F - 51.8 °F 44% 30.02 in 10.0 mi NNW 12.7 mph 18.4 mph N/A   Clear
4:55 PM 73.4 °F - 48.2 °F 41% 30.01 in 10.0 mi WNW 11.5 mph - N/A   Clear
5:55 PM 68.0 °F - 51.8 °F 56% 30.02 in 10.0 mi WNW 6.9 mph - N/A   Clear
6:55 PM 57.2 °F - 48.2 °F 72% 30.03 in 10.0 mi WNW 6.9 mph - N/A   Clear
7:55 PM 51.8 °F - 46.4 °F 82% 30.04 in 10.0 mi WNW 6.9 mph - N/A   Clear
8:55 PM 50.0 °F - 42.8 °F 76% 30.06 in 10.0 mi NW 8.1 mph - N/A   Clear
9:55 PM 46.4 °F 42.9 °F 41.0 °F 81% 30.05 in 10.0 mi WNW 6.9 mph - N/A   Clear
10:55 PM 46.4 °F 42.4 °F 41.0 °F 81% 30.06 in 10.0 mi West 8.1 mph - N/A   Clear
11:55 PM 44.6 °F 40.2 °F 39.2 °F 81% 30.07 in 10.0 mi WNW 8.1 mph - N/A   Clear